COSMOS 382

Satellite information

Favourite Embed

Satellite Type and Status

PAYLOADIN ORBIT

Key statistics

Satellite COSMOS 382 at a glance.

Uptime

20051

Days in orbit

Revolutions

≈ 8.4

Per day

Orbit

MEO

Medium Earth Orbit

Inclination

55.9

Latest

Satellite identification and parameters

Extended collection of information and parameters for COSMOS 382.

Object identification

Identified? True

Debris? False

Object name: COSMOS 382

International designator: 1970-103A

Object number (NORAD): 4786

Object ID (CCSDS): 4786

Country: COMMONWEALTH OF INDEPENDENT STATES (CIS)

Current information (Y/N): Y

RCS size: LARGE

Orbital parameters

Period: 171.013 minutes

Inclination: 55.8646 deg

SMA: 10205.778 km

Apoapsis: 5214.151 km

Periapsis: 2441.134 km

RAAN: 200.6283 deg

Eccentricy: 0.13585525

Argument of periapsis: 206.0087 deg

Mean anomaly: 190.292 deg

Mean motion: 8.42041712 rev/day

Mean motion (dot): -0.00000023 rev/day2

B* drag term: 0.0 1/REarth

Two-line elements (TLE)

Creation date: Oct. 25, 2025, 3:11 a.m.

Reference frame: TEME

Reference center: EARTH

Epoch: Oct. 24, 2025, 7:07 p.m. UTC

TLE line 0: 0 COSMOS 382

TLE line 1: 1 04786U 70103A 25297.79715764 -.00000023 00000-0 00000-0 0 9993

TLE line 2: 2 04786 55.8646 200.6283 1358553 206.0087 190.2920 8.42041712688740

Live tracking on map

Real-time ground track for satellite COSMOS 382.

In-orbit conjunctions

There are no conjunctions computed for COSMOS 382, at the moment. Check back to stay up to date, as we update our databases every day.

Go to all conjunctions

Associated space launch

Satellites designed to test the L1 and Blok-D systems for lunar missions.

COSMOS 382 was lifted into orbit during the mission ‘Proton | L1E 2K’, on board a Proton space rocket.

The launch took place on Dec. 2, 1970, 5 p.m. from 81/23 (81L).

For more information about the launch, click the button.

Launch to space Proton | L1E 2K
Proton | L1E 2K

Agency: N/A

Status: Launch Successful

Launch date: Dec. 2, 1970, 5 p.m. UTC

Rocket: Proton

Launch pad: 81/23 (81L)

Location: Baikonur Cosmodrome, Republic of Kazakhstan

...

Latest news about this satellite

There are no fresh news available about this satellite. Check back as we update our databases every day.


Newsletter sign-up

Weekly statistics, charts and insights to help you stay on top of the space industry.